| time (UTC) | temp F | wind direction | speed knots | gust knots | rain 1hr in | rain 24hr in | rain mn in | humidity % | barometer mb |
| 20260507151549 | 76 | 103 | 0.9 | 4.3 | 0.00 | 0.00 | 0.00 | 26 | 1013.8 |
| 20260507151035 | 76 | 178 | 0.9 | 3.5 | 0.00 | 0.00 | 0.00 | 27 | 1013.7 |
| 20260507150551 | 75 | 34 | 0.9 | 3.5 | 0.00 | 0.00 | 0.00 | 28 | 1013.7 |
| 20260507150047 | 75 | 119 | 1.7 | 3.5 | 0.00 | 0.00 | 0.00 | 28 | 1013.7 |
| 20260507145536 | 74 | 80 | 0.9 | 3.5 | 0.00 | 0.00 | 0.00 | 30 | 1013.7 |
| 20260507145037 | 73 | 44 | 0.9 | 5.2 | 0.00 | 0.00 | 0.00 | 30 | 1013.6 |
| 20260507144550 | 73 | 0 | 1.7 | 6.1 | 0.00 | 0.00 | 0.00 | 31 | 1013.7 |
| 20260507144036 | 72 | 103 | 1.7 | 6.1 | 0.00 | 0.00 | 0.00 | 29 | 1013.7 |
| 20260507143535 | 71 | 67 | 0.9 | 3.5 | 0.00 | 0.00 | 0.00 | 31 | 1013.8 |
| 20260507143044 | 71 | 79 | 0.9 | 3.5 | 0.00 | 0.00 | 0.00 | 32 | 1013.8 |
| 20260507142537 | 70 | 19 | 0.9 | 3.5 | 0.00 | 0.00 | 0.00 | 32 | 1013.8 |
| 20260507142032 | 69 | 70 | 0.9 | 4.3 | 0.00 | 0.00 | 0.00 | 33 | 1013.8 |
| 20260507141600 | 69 | 178 | 0.9 | 4.3 | 0.00 | 0.00 | 0.00 | 33 | 1013.8 |
| 20260507141033 | 69 | 30 | 1.7 | 4.3 | 0.00 | 0.00 | 0.00 | 34 | 1013.8 |
| 20260507140535 | 68 | 49 | 1.7 | 3.5 | 0.00 | 0.00 | 0.00 | 34 | 1013.8 |
| 20260507140104 | 68 | 34 | 0.9 | 2.6 | 0.00 | 0.00 | 0.00 | 35 | 1013.7 |
| 20260507135534 | 67 | 56 | 1.7 | 3.5 | 0.00 | 0.00 | 0.00 | 35 | 1013.6 |
| 20260507135033 | 67 | 83 | 0.9 | 3.5 | 0.00 | 0.00 | 0.00 | 34 | 1013.6 |
| 20260507134550 | 66 | 38 | 0.9 | 3.5 | 0.00 | 0.00 | 0.00 | 35 | 1013.5 |
| 20260507134034 | 66 | 58 | 1.7 | 3.5 | 0.00 | 0.00 | 0.00 | 34 | 1013.5 |
| 20260507133537 | 65 | 32 | 0.9 | 2.6 | 0.00 | 0.00 | 0.00 | 34 | 1013.4 |
| 20260507133048 | 65 | 0 | 0.0 | 1.7 | 0.00 | 0.00 | 0.00 | 34 | 1013.4 |
| 20260507132535 | 65 | 0 | 0.0 | 1.7 | 0.00 | 0.00 | 0.00 | 34 | 1013.4 |
| 20260507132040 | 65 | 67 | 0.0 | 1.7 | 0.00 | 0.00 | 0.00 | 34 | 1013.4 |
| 20260507131603 | 65 | 178 | 0.0 | 1.7 | 0.00 | 0.00 | 0.00 | 34 | 1013.3 |
| 20260507131037 | 65 | 161 | 0.0 | 0.9 | 0.00 | 0.00 | 0.00 | 34 | 1013.2 |
| 20260507130534 | 65 | 58 | 0.0 | 0.9 | 0.00 | 0.00 | 0.00 | 37 | 1013.2 |
| 20260507130051 | 66 | 51 | 0.0 | 1.7 | 0.00 | 0.00 | 0.00 | 36 | 1013.3 |
| 20260507125535 | 66 | 0 | 0.0 | 1.7 | 0.00 | 0.00 | 0.00 | 32 | 1013.2 |
| 20260507125034 | 66 | 0 | 0.0 | 1.7 | 0.00 | 0.00 | 0.00 | 36 | 1013.2 |
| 20260507124607 | 66 | 0 | 0.0 | 3.5 | 0.00 | 0.00 | 0.00 | 32 | 1013.1 |
| 20260507124032 | 66 | 111 | 0.0 | 6.1 | 0.00 | 0.00 | 0.00 | 31 | 1013.1 |
| 20260507123535 | 66 | 9 | 2.6 | 6.1 | 0.00 | 0.00 | 0.00 | 31 | 1013.0 |
| 20260507123057 | 66 | 22 | 1.7 | 7.0 | 0.00 | 0.00 | 0.00 | 31 | 1013.0 |
| 20260507122533 | 66 | 9 | 2.6 | 7.0 | 0.00 | 0.00 | 0.00 | 31 | 1013.0 |
| 20260507122035 | 66 | 17 | 3.5 | 7.0 | 0.00 | 0.00 | 0.00 | 32 | 1013.0 |
| 20260507121546 | 65 | 41 | 2.6 | 7.0 | 0.00 | 0.00 | 0.00 | 33 | 1012.9 |
| 20260507121032 | 65 | 46 | 2.6 | 5.2 | 0.00 | 0.00 | 0.00 | 33 | 1012.9 |
| 20260507120534 | 65 | 33 | 1.7 | 3.5 | 0.00 | 0.00 | 0.00 | 33 | 1012.8 |
| 20260507120048 | 65 | 51 | 0.9 | 3.5 | 0.00 | 0.00 | 0.00 | 32 | 1012.9 |
| 20260507115538 | 65 | 55 | 0.9 | 4.3 | 0.00 | 0.00 | 0.00 | 32 | 1013.0 |
| 20260507115034 | 66 | 22 | 1.7 | 4.3 | 0.00 | 0.00 | 0.00 | 32 | 1013.0 |
| 20260507114547 | 66 | 341 | 1.7 | 4.3 | 0.00 | 0.00 | 0.00 | 32 | 1012.9 |
| 20260507114038 | 66 | 55 | 1.7 | 5.2 | 0.00 | 0.00 | 0.00 | 32 | 1013.1 |
| 20260507113534 | 66 | 9 | 2.6 | 5.2 | 0.00 | 0.00 | 0.00 | 32 | 1013.2 |
| 20260507113053 | 66 | 347 | 0.9 | 3.5 | 0.00 | 0.00 | 0.00 | 31 | 1013.1 |
| 20260507112535 | 66 | 0 | 0.9 | 3.5 | 0.00 | 0.00 | 0.00 | 31 | 1013.2 |
| 20260507112038 | 66 | 51 | 0.9 | 3.5 | 0.00 | 0.00 | 0.00 | 31 | 1013.2 |
| 20260507111643 | 66 | 247 | 0.9 | 3.5 | 0.00 | 0.00 | 0.00 | 31 | 1013.2 |
| 20260507111551 | 66 | 247 | 0.9 | 3.5 | 0.00 | 0.00 | 0.00 | 31 | 1013.2 |
| 20260507111032 | 66 | 325 | 1.7 | 3.5 | 0.00 | 0.00 | 0.00 | 31 | 1013.2 |
| 20260507110535 | 67 | 15 | 1.7 | 3.5 | 0.00 | 0.00 | 0.00 | 31 | 1013.2 |
| 20260507110043 | 67 | 26 | 0.0 | 2.6 | 0.00 | 0.00 | 0.00 | 31 | 1013.3 |
| 20260507105532 | 67 | 46 | 0.0 | 2.6 | 0.00 | 0.00 | 0.00 | 30 | 1013.3 |
| 20260507105034 | 67 | 0 | 0.9 | 2.6 | 0.00 | 0.00 | 0.00 | 30 | 1013.5 |
| 20260507104542 | 67 | 22 | 0.0 | 1.7 | 0.00 | 0.00 | 0.00 | 29 | 1013.4 |
| 20260507104036 | 67 | 0 | 0.0 | 1.7 | 0.00 | 0.00 | 0.00 | 29 | 1013.5 |
| 20260507103537 | 67 | 26 | 0.0 | 1.7 | 0.00 | 0.00 | 0.00 | 29 | 1013.5 |
| 20260507103046 | 68 | 338 | 0.0 | 1.7 | 0.00 | 0.00 | 0.00 | 29 | 1013.5 |
| 20260507102538 | 68 | 0 | 0.0 | 1.7 | 0.00 | 0.00 | 0.00 | 29 | 1013.5 |
| 20260507102036 | 68 | 0 | 0.0 | 1.7 | 0.00 | 0.00 | 0.00 | 29 | 1013.7 |
| 20260507101553 | 68 | 83 | 0.0 | 1.7 | 0.00 | 0.00 | 0.00 | 29 | 1013.6 |
| 20260507101036 | 68 | 61 | 0.9 | 2.6 | 0.00 | 0.00 | 0.00 | 29 | 1013.7 |
| 20260507100555 | 68 | 0 | 0.0 | 2.6 | 0.00 | 0.00 | 0.00 | 29 | 1013.7 |
| 20260507100051 | 68 | 83 | 0.0 | 2.6 | 0.00 | 0.00 | 0.00 | 29 | 1013.7 |
| 20260507095535 | 69 | 0 | 0.9 | 2.6 | 0.00 | 0.00 | 0.00 | 29 | 1013.6 |
| 20260507095035 | 69 | 92 | 0.9 | 2.6 | 0.00 | 0.00 | 0.00 | 29 | 1013.7 |
| 20260507094546 | 69 | 111 | 0.9 | 2.6 | 0.00 | 0.00 | 0.00 | 29 | 1013.7 |
| 20260507094032 | 69 | 0 | 0.9 | 2.6 | 0.00 | 0.00 | 0.00 | 28 | 1013.6 |
| 20260507093535 | 69 | 56 | 1.7 | 3.5 | 0.00 | 0.00 | 0.00 | 28 | 1013.6 |
| 20260507093042 | 69 | 67 | 1.7 | 3.5 | 0.00 | 0.00 | 0.00 | 28 | 1013.6 |
| 20260507092534 | 69 | 0 | 0.9 | 2.6 | 0.00 | 0.00 | 0.00 | 27 | 1013.6 |
| 20260507092034 | 70 | 0 | 0.9 | 2.6 | 0.00 | 0.00 | 0.00 | 27 | 1013.7 |
| 20260507091539 | 70 | 44 | 0.9 | 2.6 | 0.00 | 0.00 | 0.00 | 27 | 1013.6 |
| 20260507091032 | 70 | 338 | 0.9 | 2.6 | 0.00 | 0.00 | 0.00 | 27 | 1013.5 |
| 20260507090531 | 71 | 17 | 0.0 | 1.7 | 0.00 | 0.00 | 0.00 | 26 | 1013.6 |
| 20260507090046 | 71 | 334 | 0.0 | 3.5 | 0.00 | 0.00 | 0.00 | 26 | 1013.5 |
| 20260507085536 | 71 | 38 | 1.7 | 6.1 | 0.00 | 0.00 | 0.00 | 26 | 1013.6 |
| 20260507085036 | 71 | 24 | 2.6 | 6.1 | 0.00 | 0.00 | 0.00 | 25 | 1013.6 |
| 20260507084551 | 71 | 344 | 1.7 | 6.1 | 0.00 | 0.00 | 0.00 | 24 | 1013.6 |
| 20260507084036 | 72 | 30 | 1.7 | 6.1 | 0.00 | 0.00 | 0.00 | 24 | 1013.6 |
| 20260507083535 | 72 | 273 | 3.5 | 7.0 | 0.00 | 0.00 | 0.00 | 24 | 1013.5 |
| 20260507083049 | 71 | 265 | 3.5 | 7.0 | 0.00 | 0.00 | 0.00 | 24 | 1013.6 |
| 20260507082534 | 71 | 250 | 3.5 | 7.0 | 0.00 | 0.00 | 0.00 | 24 | 1013.7 |
| 20260507082039 | 71 | 252 | 3.5 | 7.0 | 0.00 | 0.00 | 0.00 | 25 | 1013.8 |
| 20260507081544 | 71 | 275 | 4.3 | 6.1 | 0.00 | 0.00 | 0.00 | 25 | 1013.9 |
| 20260507081036 | 72 | 262 | 3.5 | 6.1 | 0.00 | 0.00 | 0.00 | 25 | 1013.9 |
| 20260507080533 | 72 | 269 | 2.6 | 6.1 | 0.00 | 0.00 | 0.00 | 25 | 1013.9 |
| 20260507080053 | 72 | 286 | 2.6 | 5.2 | 0.00 | 0.00 | 0.00 | 25 | 1013.8 |
| 20260507075536 | 72 | 282 | 2.6 | 6.1 | 0.00 | 0.00 | 0.00 | 25 | 1013.8 |
| 20260507075036 | 72 | 288 | 2.6 | 7.0 | 0.00 | 0.00 | 0.00 | 25 | 1013.8 |
| 20260507074556 | 72 | 275 | 4.3 | 7.0 | 0.00 | 0.00 | 0.00 | 24 | 1013.9 |
| 20260507074036 | 72 | 282 | 2.6 | 7.0 | 0.00 | 0.00 | 0.00 | 25 | 1013.8 |
| 20260507073536 | 72 | 250 | 3.5 | 9.6 | 0.00 | 0.00 | 0.00 | 25 | 1013.8 |
| 20260507073058 | 72 | 280 | 4.3 | 9.6 | 0.00 | 0.00 | 0.00 | 25 | 1013.8 |
| 20260507072536 | 72 | 287 | 3.5 | 9.6 | 0.00 | 0.00 | 0.00 | 25 | 1013.7 |
| 20260507072037 | 72 | 252 | 5.2 | 9.6 | 0.00 | 0.00 | 0.00 | 25 | 1013.8 |
| 20260507071600 | 72 | 250 | 5.2 | 7.8 | 0.00 | 0.00 | 0.00 | 24 | 1013.8 |
| 20260507071038 | 72 | 275 | 5.2 | 7.8 | 0.00 | 0.00 | 0.00 | 25 | 1013.8 |
| 20260507070535 | 72 | 275 | 4.3 | 7.8 | 0.00 | 0.00 | 0.00 | 24 | 1013.8 |
| 20260507070048 | 72 | 277 | 4.3 | 7.0 | 0.00 | 0.00 | 0.00 | 25 | 1013.9 |
| 20260507065537 | 72 | 257 | 3.5 | 7.0 | 0.00 | 0.00 | 0.00 | 24 | 1013.9 |
| 20260507065034 | 73 | 269 | 3.5 | 7.0 | 0.00 | 0.00 | 0.00 | 24 | 1013.9 |
| 20260507064551 | 73 | 275 | 4.3 | 7.8 | 0.00 | 0.00 | 0.00 | 24 | 1013.8 |
| 20260507064036 | 73 | 291 | 4.3 | 7.8 | 0.00 | 0.00 | 0.00 | 24 | 1013.9 |
| 20260507063536 | 73 | 284 | 3.5 | 7.0 | 0.00 | 0.00 | 0.00 | 24 | 1013.9 |
| 20260507063055 | 73 | 280 | 4.3 | 7.0 | 0.00 | 0.00 | 0.00 | 24 | 1013.8 |
| 20260507062536 | 73 | 270 | 5.2 | 7.8 | 0.00 | 0.00 | 0.00 | 24 | 1013.8 |
| 20260507062036 | 73 | 265 | 5.2 | 7.8 | 0.00 | 0.00 | 0.00 | 23 | 1013.7 |
| 20260507061544 | 73 | 296 | 4.3 | 7.0 | 0.00 | 0.00 | 0.00 | 24 | 1013.8 |
| 20260507061036 | 73 | 306 | 2.6 | 5.2 | 0.00 | 0.00 | 0.00 | 24 | 1013.8 |
| 20260507060536 | 74 | 277 | 1.7 | 5.2 | 0.00 | 0.00 | 0.00 | 24 | 1013.8 |
| 20260507060043 | 74 | 254 | 2.6 | 5.2 | 0.00 | 0.00 | 0.00 | 24 | 1013.9 |
| 20260507055538 | 74 | 261 | 2.6 | 5.2 | 0.00 | 0.00 | 0.00 | 24 | 1013.8 |
| 20260507055037 | 74 | 291 | 2.6 | 6.1 | 0.00 | 0.00 | 0.00 | 24 | 1013.8 |
| 20260507054552 | 75 | 270 | 3.5 | 6.1 | 0.00 | 0.00 | 0.00 | 24 | 1013.9 |
| 20260507054036 | 75 | 272 | 3.5 | 7.0 | 0.00 | 0.00 | 0.00 | 24 | 1013.9 |
| 20260507053536 | 75 | 284 | 3.5 | 7.0 | 0.00 | 0.00 | 0.00 | 23 | 1013.9 |
| 20260507053049 | 75 | 288 | 2.6 | 7.0 | 0.00 | 0.00 | 0.00 | 23 | 1013.8 |
| 20260507052536 | 75 | 273 | 2.6 | 6.1 | 0.00 | 0.00 | 0.00 | 23 | 1013.7 |
| 20260507052036 | 75 | 286 | 3.5 | 6.1 | 0.00 | 0.00 | 0.00 | 23 | 1013.7 |
| 20260507051546 | 75 | 292 | 3.5 | 6.1 | 0.00 | 0.00 | 0.00 | 23 | 1013.6 |
| 20260507051035 | 75 | 296 | 2.6 | 6.1 | 0.00 | 0.00 | 0.00 | 23 | 1013.6 |
| 20260507050535 | 76 | 300 | 2.6 | 7.0 | 0.00 | 0.00 | 0.00 | 23 | 1013.6 |
| 20260507050044 | 76 | 252 | 2.6 | 7.0 | 0.00 | 0.00 | 0.00 | 22 | 1013.6 |
| 20260507045536 | 76 | 261 | 2.6 | 7.0 | 0.00 | 0.00 | 0.00 | 22 | 1013.6 |
| 20260507045036 | 76 | 279 | 3.5 | 7.8 | 0.00 | 0.00 | 0.00 | 22 | 1013.5 |
| 20260507044546 | 76 | 247 | 4.3 | 7.8 | 0.00 | 0.00 | 0.00 | 22 | 1013.5 |
| 20260507044038 | 76 | 246 | 3.5 | 7.0 | 0.00 | 0.00 | 0.00 | 22 | 1013.5 |
| 20260507043533 | 77 | 242 | 4.3 | 7.0 | 0.00 | 0.00 | 0.00 | 22 | 1013.5 |
| 20260507043047 | 77 | 265 | 3.5 | 7.0 | 0.00 | 0.00 | 0.00 | 22 | 1013.5 |
| 20260507042536 | 77 | 259 | 4.3 | 7.8 | 0.00 | 0.00 | 0.00 | 22 | 1013.4 |
| 20260507042035 | 77 | 250 | 4.3 | 7.8 | 0.00 | 0.00 | 0.00 | 22 | 1013.4 |
| 20260507041545 | 77 | 252 | 5.2 | 8.7 | 0.00 | 0.00 | 0.00 | 21 | 1013.3 |
| 20260507041036 | 77 | 250 | 4.3 | 8.7 | 0.00 | 0.00 | 0.00 | 21 | 1013.2 |
| 20260507040537 | 78 | 269 | 3.5 | 7.8 | 0.00 | 0.00 | 0.00 | 21 | 1013.1 |
| 20260507040057 | 78 | 242 | 5.2 | 7.8 | 0.00 | 0.00 | 0.00 | 21 | 1013.1 |
| 20260507035536 | 78 | 272 | 3.5 | 7.8 | 0.00 | 0.00 | 0.00 | 21 | 1013.0 |
| 20260507035036 | 78 | 273 | 3.5 | 7.8 | 0.00 | 0.00 | 0.00 | 21 | 1012.9 |
| 20260507034554 | 78 | 261 | 4.3 | 7.8 | 0.00 | 0.00 | 0.00 | 21 | 1012.8 |
| 20260507034035 | 78 | 236 | 2.6 | 7.0 | 0.00 | 0.00 | 0.00 | 21 | 1012.8 |
| 20260507033535 | 79 | 261 | 3.5 | 7.8 | 0.00 | 0.00 | 0.00 | 21 | 1012.7 |
| 20260507033047 | 79 | 291 | 3.5 | 7.8 | 0.00 | 0.00 | 0.00 | 21 | 1012.6 |
| 20260507032535 | 79 | 282 | 3.5 | 7.0 | 0.00 | 0.00 | 0.00 | 21 | 1012.4 |
| 20260507032032 | 79 | 286 | 3.5 | 7.8 | 0.00 | 0.00 | 0.00 | 21 | 1012.4 |
| 20260507031550 | 79 | 270 | 4.3 | 7.8 | 0.00 | 0.00 | 0.00 | 21 | 1012.3 |
| 20260507031035 | 79 | 286 | 5.2 | 7.8 | 0.00 | 0.00 | 0.00 | 20 | 1012.2 |
| 20260507030537 | 80 | 287 | 4.3 | 7.8 | 0.00 | 0.00 | 0.00 | 20 | 1012.2 |
| 20260507030048 | 80 | 269 | 5.2 | 7.8 | 0.00 | 0.00 | 0.00 | 20 | 1012.2 |
| 20260507025537 | 80 | 268 | 3.5 | 6.1 | 0.00 | 0.00 | 0.00 | 20 | 1012.1 |
| 20260507025036 | 80 | 269 | 4.3 | 7.0 | 0.00 | 0.00 | 0.00 | 20 | 1012.1 |
| 20260507024544 | 81 | 270 | 4.3 | 7.0 | 0.00 | 0.00 | 0.00 | 19 | 1012.0 |
| 20260507024037 | 81 | 281 | 3.5 | 7.8 | 0.00 | 0.00 | 0.00 | 19 | 1011.9 |
| 20260507023535 | 81 | 272 | 5.2 | 8.7 | 0.00 | 0.00 | 0.00 | 19 | 1011.9 |
| 20260507023044 | 81 | 257 | 6.1 | 8.7 | 0.00 | 0.00 | 0.00 | 19 | 1011.9 |
| 20260507022535 | 81 | 250 | 5.2 | 8.7 | 0.00 | 0.00 | 0.00 | 19 | 1011.9 |
| 20260507022033 | 81 | 255 | 6.1 | 8.7 | 0.00 | 0.00 | 0.00 | 19 | 1011.8 |
| 20260507021546 | 81 | 254 | 4.3 | 8.7 | 0.00 | 0.00 | 0.00 | 19 | 1011.9 |
| 20260507021037 | 81 | 273 | 5.2 | 8.7 | 0.00 | 0.00 | 0.00 | 19 | 1011.8 |
| 20260507020532 | 82 | 277 | 6.1 | 8.7 | 0.00 | 0.00 | 0.00 | 18 | 1011.9 |
| 20260507020100 | 82 | 240 | 5.2 | 8.7 | 0.00 | 0.00 | 0.00 | 18 | 1011.9 |
| 20260507015536 | 82 | 247 | 5.2 | 9.6 | 0.00 | 0.00 | 0.00 | 18 | 1011.9 |
| 20260507015036 | 82 | 267 | 5.2 | 9.6 | 0.00 | 0.00 | 0.00 | 18 | 1011.8 |
| 20260507014559 | 82 | 236 | 7.0 | 10.4 | 0.00 | 0.00 | 0.00 | 18 | 1011.8 |
| 20260507014036 | 82 | 241 | 6.1 | 10.4 | 0.00 | 0.00 | 0.00 | 18 | 1011.8 |
| 20260507013538 | 82 | 238 | 6.1 | 12.2 | 0.00 | 0.00 | 0.00 | 18 | 1011.9 |
| 20260507013044 | 83 | 257 | 7.0 | 12.2 | 0.00 | 0.00 | 0.00 | 18 | 1011.9 |
| 20260507012535 | 83 | 271 | 7.8 | 10.4 | 0.00 | 0.00 | 0.00 | 18 | 1011.8 |
| 20260507012035 | 83 | 275 | 6.1 | 10.4 | 0.00 | 0.00 | 0.00 | 18 | 1011.8 |
| 20260507011601 | 83 | 243 | 7.0 | 12.2 | 0.00 | 0.00 | 0.00 | 18 | 1011.7 |
| 20260507011032 | 83 | 252 | 7.0 | 12.2 | 0.00 | 0.00 | 0.00 | 18 | 1011.8 |
| 20260507010536 | 83 | 240 | 7.0 | 10.4 | 0.00 | 0.00 | 0.00 | 18 | 1011.8 |
| 20260507010043 | 83 | 261 | 5.2 | 12.2 | 0.00 | 0.00 | 0.00 | 18 | 1011.8 |
| 20260507005533 | 83 | 273 | 7.0 | 12.2 | 0.00 | 0.00 | 0.00 | 18 | 1011.8 |
| 20260507005032 | 83 | 234 | 7.0 | 10.4 | 0.00 | 0.00 | 0.00 | 18 | 1011.8 |
| 20260507004542 | 83 | 255 | 4.3 | 11.3 | 0.00 | 0.00 | 0.00 | 18 | 1011.8 |
| 20260507004032 | 83 | 289 | 7.8 | 11.3 | 0.00 | 0.00 | 0.00 | 18 | 1011.8 |
| 20260507003535 | 83 | 225 | 6.1 | 11.3 | 0.00 | 0.00 | 0.00 | 18 | 1011.8 |
| 20260507003047 | 84 | 254 | 6.1 | 11.3 | 0.00 | 0.00 | 0.00 | 18 | 1011.8 |
| 20260507002535 | 84 | 273 | 7.0 | 12.2 | 0.00 | 0.00 | 0.00 | 18 | 1011.8 |
| 20260507002035 | 84 | 249 | 6.1 | 12.2 | 0.00 | 0.00 | 0.00 | 18 | 1011.9 |
| 20260507001617 | 84 | 259 | 6.1 | 11.3 | 0.00 | 0.00 | 0.00 | 18 | 1011.8 |
| 20260507001038 | 84 | 288 | 3.5 | 11.3 | 0.00 | 0.00 | 0.00 | 18 | 1011.9 |
| 20260507000539 | 84 | 265 | 5.2 | 11.3 | 0.00 | 0.00 | 0.00 | 18 | 1011.8 |
| 20260507000100 | 84 | 336 | 4.3 | 12.2 | 0.00 | 0.00 | 0.00 | 18 | 1011.9 |
| 20260506235536 | 84 | 262 | 8.7 | 15.6 | 0.00 | 0.00 | 0.00 | 18 | 1011.9 |
| 20260506235036 | 84 | 297 | 6.1 | 15.6 | 0.00 | 0.00 | 0.00 | 18 | 1011.9 |
| 20260506234558 | 84 | 214 | 1.7 | 13.9 | 0.00 | 0.00 | 0.00 | 18 | 1012.0 |
| 20260506234036 | 84 | 279 | 7.8 | 13.9 | 0.00 | 0.00 | 0.00 | 18 | 1012.0 |
| 20260506233537 | 84 | 271 | 4.3 | 11.3 | 0.00 | 0.00 | 0.00 | 18 | 1011.9 |
| 20260506233043 | 84 | 272 | 3.5 | 11.3 | 0.00 | 0.00 | 0.00 | 19 | 1012.0 |
| 20260506232536 | 84 | 290 | 6.1 | 12.2 | 0.00 | 0.00 | 0.00 | 18 | 1012.1 |
| 20260506232035 | 84 | 257 | 7.0 | 12.2 | 0.00 | 0.00 | 0.00 | 18 | 1012.2 |
| 20260506231542 | 84 | 270 | 5.2 | 12.2 | 0.00 | 0.00 | 0.00 | 19 | 1012.2 |
| 20260506231036 | 84 | 275 | 6.1 | 13.9 | 0.00 | 0.00 | 0.00 | 19 | 1012.2 |
| 20260506230539 | 84 | 277 | 6.1 | 13.9 | 0.00 | 0.00 | 0.00 | 19 | 1012.3 |
| 20260506230052 | 84 | 269 | 6.1 | 12.2 | 0.00 | 0.00 | 0.00 | 19 | 1012.3 |
| 20260506225535 | 84 | 223 | 7.8 | 13.9 | 0.00 | 0.00 | 0.00 | 19 | 1012.4 |
| 20260506225036 | 84 | 272 | 8.7 | 14.8 | 0.00 | 0.00 | 0.00 | 19 | 1012.4 |
| 20260506224546 | 84 | 255 | 8.7 | 15.6 | 0.00 | 0.00 | 0.00 | 19 | 1012.5 |
| 20260506224035 | 84 | 262 | 11.3 | 15.6 | 0.00 | 0.00 | 0.00 | 18 | 1012.6 |
| 20260506223535 | 85 | 259 | 4.3 | 12.2 | 0.00 | 0.00 | 0.00 | 18 | 1012.5 |
| 20260506223053 | 85 | 259 | 7.0 | 12.2 | 0.00 | 0.00 | 0.00 | 18 | 1012.7 |
| 20260506222536 | 85 | 293 | 1.7 | 7.0 | 0.00 | 0.00 | 0.00 | 20 | 1012.7 |
| 20260506222036 | 85 | 219 | 1.7 | 7.0 | 0.00 | 0.00 | 0.00 | 18 | 1012.7 |
| 20260506221544 | 85 | 58 | 2.6 | 9.6 | 0.00 | 0.00 | 0.00 | 19 | 1012.9 |
| 20260506221035 | 84 | 341 | 3.5 | 10.4 | 0.00 | 0.00 | 0.00 | 19 | 1012.8 |
| 20260506220536 | 83 | 231 | 6.1 | 13.9 | 0.00 | 0.00 | 0.00 | 18 | 1012.9 |
| 20260506220057 | 83 | 311 | 8.7 | 13.9 | 0.00 | 0.00 | 0.00 | 19 | 1013.0 |
| 20260506215537 | 84 | 304 | 7.8 | 15.6 | 0.00 | 0.00 | 0.00 | 18 | 1013.1 |
| 20260506215037 | 84 | 277 | 9.6 | 15.6 | 0.00 | 0.00 | 0.00 | 18 | 1013.2 |
| 20260506214550 | 85 | 282 | 1.7 | 10.4 | 0.00 | 0.00 | 0.00 | 18 | 1013.2 |
| 20260506214036 | 85 | 248 | 6.1 | 10.4 | 0.00 | 0.00 | 0.00 | 18 | 1013.4 |
| 20260506213536 | 85 | 186 | 5.2 | 16.5 | 0.00 | 0.00 | 0.00 | 17 | 1013.5 |
| 20260506213047 | 85 | 195 | 6.1 | 16.5 | 0.00 | 0.00 | 0.00 | 18 | 1013.6 |
| 20260506212536 | 84 | 273 | 4.3 | 8.7 | 0.00 | 0.00 | 0.00 | 18 | 1013.7 |
| 20260506212036 | 84 | 44 | 2.6 | 9.6 | 0.00 | 0.00 | 0.00 | 19 | 1013.7 |
| 20260506211547 | 83 | 213 | 5.2 | 11.3 | 0.00 | 0.00 | 0.00 | 18 | 1013.8 |
| 20260506211036 | 83 | 275 | 7.0 | 11.3 | 0.00 | 0.00 | 0.00 | 19 | 1013.9 |
| 20260506210538 | 83 | 292 | 2.6 | 7.8 | 0.00 | 0.00 | 0.00 | 19 | 1014.0 |
| 20260506210048 | 83 | 169 | 1.7 | 8.7 | 0.00 | 0.00 | 0.00 | 20 | 1014.1 |
| 20260506205535 | 83 | 67 | 2.6 | 8.7 | 0.00 | 0.00 | 0.00 | 20 | 1014.3 |
| 20260506205035 | 83 | 9 | 2.6 | 7.0 | 0.00 | 0.00 | 0.00 | 21 | 1014.4 |
| 20260506204544 | 82 | 51 | 2.6 | 7.8 | 0.00 | 0.00 | 0.00 | 21 | 1014.5 |
| 20260506204035 | 82 | 136 | 4.3 | 9.6 | 0.00 | 0.00 | 0.00 | 18 | 1014.5 |
| 20260506203535 | 83 | 207 | 3.5 | 9.6 | 0.00 | 0.00 | 0.00 | 19 | 1014.5 |
| 20260506203126 | 82 | 236 | 2.6 | 12.2 | 0.00 | 0.00 | 0.00 | 19 | 1014.6 |
| 20260506202535 | 82 | 288 | 6.1 | 13.9 | 0.00 | 0.00 | 0.00 | 19 | 1014.7 |
| 20260506202035 | 81 | 43 | 8.7 | 13.9 | 0.00 | 0.00 | 0.00 | 19 | 1014.7 |
| 20260506201546 | 81 | 296 | 2.6 | 10.4 | 0.00 | 0.00 | 0.00 | 20 | 1014.7 |
| 20260506201035 | 81 | 294 | 4.3 | 8.7 | 0.00 | 0.00 | 0.00 | 19 | 1014.7 |
| 20260506200537 | 81 | 297 | 2.6 | 11.3 | 0.00 | 0.00 | 0.00 | 20 | 1014.7 |
| 20260506200051 | 81 | 31 | 4.3 | 11.3 | 0.00 | 0.00 | 0.00 | 20 | 1014.8 |
| 20260506195536 | 81 | 309 | 0.9 | 9.6 | 0.00 | 0.00 | 0.00 | 20 | 1014.8 |
| 20260506195036 | 80 | 313 | 7.0 | 11.3 | 0.00 | 0.00 | 0.00 | 20 | 1014.9 |
| 20260506194545 | 81 | 286 | 2.6 | 13.0 | 0.00 | 0.00 | 0.00 | 20 | 1014.9 |
| 20260506194035 | 81 | 269 | 7.8 | 13.0 | 0.00 | 0.00 | 0.00 | 20 | 1015.0 |
| 20260506193534 | 82 | 286 | 3.5 | 11.3 | 0.00 | 0.00 | 0.00 | 20 | 1015.0 |
| 20260506193043 | 81 | 309 | 5.2 | 10.4 | 0.00 | 0.00 | 0.00 | 20 | 1015.1 |
| 20260506192534 | 81 | 265 | 2.6 | 11.3 | 0.00 | 0.00 | 0.00 | 20 | 1015.2 |
| 20260506192034 | 81 | 227 | 4.3 | 11.3 | 0.00 | 0.00 | 0.00 | 20 | 1015.2 |
| 20260506191545 | 81 | 309 | 2.6 | 13.9 | 0.00 | 0.00 | 0.00 | 21 | 1015.2 |
| 20260506191035 | 80 | 218 | 6.1 | 14.8 | 0.00 | 0.00 | 0.00 | 20 | 1015.3 |
| 20260506190535 | 81 | 267 | 8.7 | 14.8 | 0.00 | 0.00 | 0.00 | 20 | 1015.3 |
| 20260506190049 | 80 | 244 | 1.7 | 9.6 | 0.00 | 0.00 | 0.00 | 21 | 1015.3 |
| 20260506185534 | 80 | 332 | 3.5 | 12.2 | 0.00 | 0.00 | 0.00 | 23 | 1015.5 |
| 20260506185034 | 80 | 229 | 7.0 | 12.2 | 0.00 | 0.00 | 0.00 | 21 | 1015.6 |
| 20260506184552 | 80 | 211 | 5.2 | 10.4 | 0.00 | 0.00 | 0.00 | 22 | 1015.6 |
| 20260506184034 | 79 | 236 | 4.3 | 13.9 | 0.00 | 0.00 | 0.00 | 22 | 1015.6 |
| 20260506183534 | 79 | 225 | 5.2 | 13.9 | 0.00 | 0.00 | 0.00 | 23 | 1015.6 |
| 20260506183047 | 79 | 269 | 6.1 | 13.9 | 0.00 | 0.00 | 0.00 | 22 | 1015.7 |
| 20260506182534 | 79 | 146 | 4.3 | 10.4 | 0.00 | 0.00 | 0.00 | 22 | 1015.8 |
| 20260506182034 | 78 | 291 | 2.6 | 14.8 | 0.00 | 0.00 | 0.00 | 24 | 1015.8 |
| 20260506181545 | 79 | 262 | 7.0 | 14.8 | 0.00 | 0.00 | 0.00 | 23 | 1015.9 |
| 20260506181034 | 79 | 242 | 4.3 | 11.3 | 0.00 | 0.00 | 0.00 | 24 | 1016.0 |
| 20260506180533 | 79 | 277 | 1.7 | 10.4 | 0.00 | 0.00 | 0.00 | 26 | 1016.1 |
| 20260506180046 | 78 | 249 | 4.3 | 10.4 | 0.00 | 0.00 | 0.00 | 25 | 1016.1 |
| 20260506175533 | 78 | 325 | 3.5 | 9.6 | 0.00 | 0.00 | 0.00 | 25 | 1016.1 |
| 20260506175034 | 77 | 309 | 4.3 | 9.6 | 0.00 | 0.00 | 0.00 | 27 | 1016.1 |
| 20260506174546 | 77 | 23 | 2.6 | 11.3 | 0.00 | 0.00 | 0.00 | 27 | 1016.1 |
| 20260506174035 | 77 | 265 | 4.3 | 11.3 | 0.00 | 0.00 | 0.00 | 26 | 1016.1 |
| 20260506173536 | 77 | 0 | 2.6 | 9.6 | 0.00 | 0.00 | 0.00 | 26 | 1016.2 |
| 20260506173056 | 76 | 255 | 4.3 | 13.0 | 0.00 | 0.00 | 0.00 | 27 | 1016.2 |
| 20260506172536 | 76 | 261 | 7.0 | 13.0 | 0.00 | 0.00 | 0.00 | 27 | 1016.2 |
| 20260506172039 | 76 | 291 | 3.5 | 11.3 | 0.00 | 0.00 | 0.00 | 28 | 1016.1 |
| 20260506171550 | 76 | 279 | 6.1 | 11.3 | 0.00 | 0.00 | 0.00 | 27 | 1016.2 |
| 20260506171035 | 75 | 221 | 5.2 | 10.4 | 0.00 | 0.00 | 0.00 | 28 | 1016.1 |
| 20260506170535 | 75 | 249 | 2.6 | 9.6 | 0.00 | 0.00 | 0.00 | 29 | 1016.2 |
| 20260506170051 | 74 | 259 | 4.3 | 9.6 | 0.00 | 0.00 | 0.00 | 30 | 1016.3 |
| 20260506165537 | 74 | 271 | 3.5 | 9.6 | 0.00 | 0.00 | 0.00 | 30 | 1016.1 |
| 20260506165036 | 73 | 267 | 3.5 | 9.6 | 0.00 | 0.00 | 0.00 | 30 | 1016.1 |
| 20260506164548 | 73 | 249 | 5.2 | 10.4 | 0.00 | 0.00 | 0.00 | 31 | 1016.2 |
| 20260506164033 | 73 | 225 | 7.8 | 10.4 | 0.00 | 0.00 | 0.00 | 31 | 1016.1 |
| 20260506163536 | 72 | 249 | 3.5 | 9.6 | 0.00 | 0.00 | 0.00 | 32 | 1016.1 |
| 20260506163057 | 71 | 272 | 6.1 | 8.7 | 0.00 | 0.00 | 0.00 | 32 | 1016.1 |
| 20260506162536 | 71 | 275 | 6.1 | 8.7 | 0.00 | 0.00 | 0.00 | 33 | 1016.1 |
| 20260506162037 | 71 | 289 | 6.1 | 8.7 | 0.00 | 0.00 | 0.00 | 33 | 1015.9 |
| 20260506161544 | 71 | 270 | 4.3 | 8.7 | 0.00 | 0.00 | 0.00 | 33 | 1016.0 |
| 20260506161039 | 70 | 232 | 5.2 | 8.7 | 0.00 | 0.00 | 0.00 | 34 | 1015.9 |
| 20260506160536 | 69 | 284 | 4.3 | 8.7 | 0.00 | 0.00 | 0.00 | 34 | 1016.0 |
| 20260506160043 | 69 | 286 | 4.3 | 9.6 | 0.00 | 0.00 | 0.00 | 34 | 1016.1 |
| 20260506155536 | 69 | 277 | 3.5 | 9.6 | 0.00 | 0.00 | 0.00 | 35 | 1016.1 |
| 20260506155038 | 68 | 281 | 4.3 | 8.7 | 0.00 | 0.00 | 0.00 | 34 | 1016.1 |
| 20260506154548 | 68 | 236 | 5.2 | 8.7 | 0.00 | 0.00 | 0.00 | 35 | 1016.0 |
| 20260506154039 | 68 | 294 | 5.2 | 9.6 | 0.00 | 0.00 | 0.00 | 36 | 1016.0 |
| 20260506153535 | 67 | 265 | 5.2 | 9.6 | 0.00 | 0.00 | 0.00 | 36 | 1016.1 |
| 20260506153050 | 67 | 267 | 7.0 | 9.6 | 0.00 | 0.00 | 0.00 | 37 | 1016.1 |
| 20260506152537 | 66 | 281 | 6.1 | 10.4 | 0.00 | 0.00 | 0.00 | 37 | 1016.1 |